EW0538 Weather Reports


Display with metric or nautical units.
time (UTC)temp
F
wind
direction
speed
MPH
gust
MPH
rain 1hr
in
rain 24hr
in
rain mn
in
humidity
%
barometer
mb
20211129113639 21 158 0.0 0.0 0.00 0.00 0.00 92 1034.5
20211129112637 21 225 0.0 0.0 0.00 0.00 0.00 92 1034.6
20211129111637 21 113 0.0 0.0 0.00 0.00 0.00 92 1034.6
20211129110606 21 113 0.0 0.0 0.00 0.00 0.00 92 1034.6
20211129105555 21 113 0.0 0.0 0.00 0.00 0.00 92 1034.6
20211129104531 21 113 0.0 0.0 0.00 0.00 0.00 91 1034.6
20211129103541 21 125 0.0 0.0 0.00 0.00 0.00 92 1034.5
20211129102526 21 137 0.0 0.0 0.00 0.00 0.00 92 1034.6
20211129101504 21 153 0.0 0.0 0.00 0.00 0.00 92 1034.6
20211129100507 22 245 0.0 0.0 0.00 0.00 0.00 92 1034.7
20211129095500 22 245 0.0 0.0 0.00 0.00 0.00 91 1034.7
20211129094440 22 250 0.0 0.0 0.00 0.00 0.00 91 1034.7
20211129093410 22 123 0.0 0.0 0.00 0.00 0.00 92 1034.7
20211129092401 22 152 0.0 0.0 0.00 0.00 0.00 91 1034.6
20211129091352 22 153 0.0 0.0 0.00 0.00 0.00 91 1034.6
20211129090403 22 155 0.0 0.0 0.00 0.00 0.00 90 1034.6
20211129085406 23 155 0.0 0.0 0.00 0.00 0.00 91 1034.7
20211129084336 22 155 0.0 0.0 0.00 0.00 0.00 91 1034.6
20211129083351 22 226 0.0 0.0 0.00 0.00 0.00 90 1034.7
20211129082325 23 92 0.0 0.0 0.00 0.00 0.00 90 1034.7
20211129081332 23 91 0.0 0.0 0.00 0.00 0.00 89 1034.6
20211129080309 23 91 0.0 0.0 0.00 0.00 0.00 90 1034.7
20211129075328 23 92 0.0 0.0 0.00 0.00 0.00 88 1034.7
20211129074342 24 92 0.0 0.0 0.00 0.00 0.00 88 1034.8
20211129073336 24 91 0.0 0.0 0.00 0.00 0.00 88 1034.8
20211129072306 24 122 0.0 0.0 0.00 0.00 0.00 88 1034.8
20211129071251 24 225 0.0 0.0 0.00 0.00 0.00 87 1034.8
20211129070251 25 108 0.0 0.0 0.00 0.00 0.00 86 1034.9
20211129065223 24 108 0.0 0.0 0.00 0.00 0.00 87 1035.1
20211129064223 25 108 0.0 0.0 0.00 0.00 0.00 87 1035.2
20211129063243 25 110 0.0 0.0 0.00 0.00 0.00 86 1035.2
20211129062228 25 158 0.0 0.0 0.00 0.00 0.00 86 1035.2
20211129061240 25 173 0.0 0.0 0.00 0.00 0.00 86 1035.2
20211129060241 25 173 0.0 0.0 0.00 0.00 0.00 85 1035.2
20211129055301 26 173 0.0 0.0 0.00 0.00 0.00 84 1035.1
20211129054229 26 224 0.0 0.0 0.00 0.00 0.00 84 1035.1
20211129053252 27 157 0.0 0.0 0.00 0.00 0.00 83 1035.1
20211129052255 26 160 0.0 0.0 0.00 0.00 0.00 84 1035.1
20211129051312 26 98 0.0 0.0 0.00 0.00 0.00 83 1035.1
20211129050334 27 160 0.0 0.0 0.00 0.00 0.00 82 1035.1
20211129045332 26 165 0.0 0.0 0.00 0.00 0.00 84 1035.1
20211129044313 26 129 0.0 0.0 0.00 0.00 0.00 83 1035.1
20211129043301 26 129 0.0 0.0 0.00 0.00 0.00 84 1035.0
20211129042239 27 129 0.0 0.0 0.00 0.00 0.00 83 1035.1
20211129041212 27 129 0.0 0.0 0.00 0.00 0.00 80 1035.2
20211129040203 28 129 0.0 0.0 0.00 0.00 0.00 80 1035.0
20211129035228 28 125 0.0 0.0 0.00 0.00 0.00 80 1035.0
20211129034233 28 126 0.0 0.0 0.00 0.00 0.00 81 1034.9
20211129033258 28 129 0.0 0.0 0.00 0.00 0.00 80 1034.9
20211129032247 29 236 0.0 0.0 0.00 0.00 0.00 81 1034.9
20211129031246 29 228 0.0 0.0 0.00 0.00 0.00 79 1034.8
20211129030215 30 249 0.0 0.0 0.00 0.00 0.00 77 1034.7
20211129025155 30 249 0.0 0.0 0.00 0.00 0.00 74 1034.6
20211129024120 31 164 0.0 0.0 0.00 0.00 0.00 73 1034.6
20211129023145 31 120 0.0 0.0 0.00 0.00 0.00 72 1034.5
20211129022138 32 221 0.0 0.0 0.00 0.00 0.00 72 1034.4
20211129021116 32 150 0.0 0.0 0.00 0.00 0.00 69 1034.3
20211129020049 33 167 0.0 0.0 0.00 0.00 0.00 70 1034.1
20211129015016 34 252 0.0 0.0 0.00 0.00 0.00 67 1034.0
20211129013952 34 252 0.0 0.0 0.00 0.00 0.00 65 1033.9
20211129013009 35 252 0.0 0.0 0.00 0.00 0.00 64 1033.6
20211129011954 36 259 0.0 0.0 0.00 0.00 0.00 61 1033.3
20211129010940 37 259 0.0 0.0 0.00 0.00 0.00 58 1033.1
20211129005957 38 137 0.0 0.0 0.00 0.00 0.00 56 1033.0
20211129004936 39 137 0.0 0.0 0.00 0.00 0.00 53 1032.9
20211129003920 41 136 0.0 0.0 0.00 0.00 0.00 51 1032.7
20211129002849 41 136 0.0 0.0 0.00 0.00 0.00 50 1032.5
20211129001835 42 155 0.0 1.0 0.00 0.00 0.00 49 1032.4
20211129000804 44 172 0.0 0.0 0.00 0.00 0.00 48 1032.2
20211128235737 45 224 0.0 2.0 0.00 0.00 0.00 44 1032.0
20211128234737 47 224 0.0 3.0 0.00 0.00 0.00 42 1031.9
20211128233713 48 134 0.0 0.0 0.00 0.00 0.00 40 1031.7
20211128232657 49 29 0.0 5.0 0.00 0.00 0.00 39 1031.6
20211128231629 51 259 0.0 4.0 0.00 0.00 0.00 37 1031.5
20211128230610 53 238 0.0 0.0 0.00 0.00 0.00 35 1031.5
20211128225557 54 250 0.0 0.0 0.00 0.00 0.00 33 1031.5
20211128224608 56 250 0.0 0.0 0.00 0.00 0.00 31 1031.4
20211128223632 58 250 0.0 0.0 0.00 0.00 0.00 29 1031.3
20211128222612 58 250 0.0 0.0 0.00 0.00 0.00 30 1031.2
20211128221636 58 150 0.0 0.0 0.00 0.00 0.00 28 1031.2
20211128220637 58 259 0.0 0.0 0.00 0.00 0.00 30 1031.4
20211128215611 57 278 0.0 0.0 0.00 0.00 0.00 30 1031.5
20211128214558 57 256 0.0 0.0 0.00 0.00 0.00 29 1031.4
20211128213549 57 278 0.0 0.0 0.00 0.00 0.00 28 1031.4
20211128212610 56 179 0.0 0.0 0.00 0.00 0.00 30 1031.5
20211128211616 56 238 0.0 1.0 0.00 0.00 0.00 30 1031.5
20211128210619 56 1 0.0 1.0 0.00 0.00 0.00 30 1031.6
20211128205612 55 76 0.0 1.0 0.00 0.00 0.00 33 1031.9
20211128204619 55 260 0.0 2.0 0.00 0.00 0.00 34 1032.1
20211128203558 54 287 0.0 1.0 0.00 0.00 0.00 34 1032.4
20211128202526 53 225 0.0 0.0 0.00 0.00 0.00 37 1032.7
20211128201518 52 228 0.0 0.0 0.00 0.00 0.00 36 1033.1
20211128200537 52 331 0.0 0.0 0.00 0.00 0.00 38 1033.3
20211128195532 51 319 0.0 2.0 0.00 0.00 0.00 38 1033.5
20211128194522 51 276 0.0 1.0 0.00 0.00 0.00 40 1033.8
20211128193451 50 278 0.0 1.0 0.00 0.00 0.00 40 1034.0
20211128192429 48 355 0.0 2.0 0.00 0.00 0.00 41 1034.1
20211128191411 47 115 0.0 3.0 0.00 0.00 0.00 43 1034.5
20211128190412 47 25 0.0 3.0 0.00 0.00 0.00 43 1034.7
20211128185422 46 31 0.0 2.0 0.00 0.00 0.00 45 1034.9
20211128184422 44 328 0.0 3.0 0.00 0.00 0.00 47 1035.0
20211128183427 44 36 0.0 0.0 0.00 0.00 0.00 48 1035.2
20211128182434 42 191 0.0 0.0 0.00 0.00 0.00 39 1035.4
20211128181402 42 158 0.0 0.0 0.00 0.00 0.00 40 1035.9
20211128180330 41 203 0.0 0.0 0.00 0.00 0.00 42 1036.1
20211128175331 40 219 0.0 1.0 0.00 0.00 0.00 45 1036.4
20211128174314 40 60 0.0 2.0 0.00 0.00 0.00 46 1036.8
20211128173243 39 53 0.0 1.0 0.00 0.00 0.00 46 1037.1
20211128172227 37 37 0.0 0.0 0.00 0.00 0.00 50 1037.3
20211128171241 35 167 0.0 0.0 0.00 0.00 0.00 53 1037.5
20211128170213 34 166 0.0 0.0 0.00 0.00 0.00 55 1037.7
20211128165204 33 155 0.0 0.0 0.00 0.00 0.00 57 1037.8
20211128164222 32 155 0.0 0.0 0.00 0.00 0.00 58 1037.8
20211128163153 30 156 0.0 0.0 0.00 0.00 0.00 59 1038.0
20211128162146 29 155 0.0 0.0 0.00 0.00 0.00 61 1038.0
20211128161122 28 155 0.0 0.0 0.00 0.00 0.00 65 1038.0
20211128160138 26 51 0.0 0.0 0.00 0.00 0.00 66 1038.2
20211128155144 25 51 0.0 0.0 0.00 0.00 0.00 68 1038.3
20211128154127 24 51 0.0 0.0 0.00 0.00 0.00 69 1038.2
20211128153143 23 51 0.0 0.0 0.00 0.00 0.00 71 1038.4
20211128152112 22 51 0.0 0.0 0.00 0.00 0.00 72 1038.5
20211128151110 21 51 0.0 0.0 0.00 0.00 0.00 73 1038.7
20211128150124 20 51 0.0 0.0 0.00 0.00 0.00 73 1038.6
20211128145115 19 51 0.0 0.0 0.00 0.00 0.00 73 1038.7
20211128144114 19 51 0.0 0.0 0.00 0.00 0.00 72 1038.4
20211128143056 18 51 0.0 0.0 0.00 0.00 0.00 72 1038.4
20211128142107 19 51 0.0 0.0 0.00 0.00 0.00 72 1038.4
20211128141048 19 51 0.0 0.0 0.00 0.00 0.00 71 1038.1
20211128140050 19 51 0.0 0.0 0.00 0.00 0.00 72 1038.2
20211128135059 19 51 0.0 0.0 0.00 0.00 0.00 72 1038.0
20211128134118 19 51 0.0 0.0 0.00 0.00 0.00 72 1037.8
20211128133119 20 51 0.0 0.0 0.00 0.00 0.00 71 1037.8
20211128132128 20 51 0.0 0.0 0.00 0.00 0.00 71 1037.7
20211128131109 20 51 0.0 0.0 0.00 0.00 0.00 71 1037.6
20211128130128 21 51 0.0 0.0 0.00 0.00 0.00 70 1037.4
20211128125056 21 51 0.0 0.0 0.00 0.00 0.00 72 1037.1
20211128124059 20 51 0.0 0.0 0.00 0.00 0.00 72 1037.1
20211128123114 19 51 0.0 1.0 0.00 0.00 0.00 73 1036.8
20211128122101 19 51 0.0 0.0 0.00 0.00 0.00 72 1036.9
20211128121027 19 51 0.0 0.0 0.00 0.00 0.00 72 1036.6
20211128115952 19 51 0.0 0.0 0.00 0.00 0.00 72 1036.8
20211128115004 19 51 0.0 0.0 0.00 0.00 0.00 71 1036.9